Argentia, Canada

1:31 PM NDT on April 30, 2017 (GMT -0230)
Argentia

Weather History for CWAR - November, 2012

Change the Weather History Date:

Sunday, November 11, 2012

  Actual Average Record
Temperature  
Mean Temperature 40 °F -  
Max Temperature 43 °F - - ()
Min Temperature 36 °F - - ()
Degree Days  
Heating Degree Days 25    
Moisture  
Dew Point 28 °F    
Average Humidity 58    
Maximum Humidity 67    
Minimum Humidity 43    
Precipitation  
Precipitation 0.00 in - - ()
Sea Level Pressure  
Sea Level Pressure 30.14 in    
Wind  
Wind Speed 24 mph ()    
Max Wind Speed 33 mph    
Max Gust Speed 41 mph    
T = Trace of Precipitation, MM = Missing Value Source: Averaged Metar Reports

Daily Weather History Graph

Daily Weather History Graph

Search for Another Location

Airport or City:

Trip Planner

Search our weather history database for the weather conditions in past years. The results will help you decide how hot, cold, wet, or windy it might be!

Date:

Astronomy

Nov. 11, 2012 Rise Set
Actual Time 7:04 AM NST 4:34 PM NST
Civil Twilight 6:31 AM NST 5:07 PM NST
Nautical Twilight 5:54 AM NST 5:44 PM NST
Astronomical Twilight 5:19 AM NST 6:20 PM NST
Moon 4:02 AM NST (11/11) 3:01 PM NST (11/11)
Length of Visible Light 10h 35m
Length of Day
9h 29m
Waning Crescent, 8% of the Moon is Illuminated
Nov 11
Waning Crescent
Nov 13
New
Nov 20
First Quarter
Nov 28
Full
Dec 6
Last Quarter

Hourly Weather History & Observations

Time (NST) Temp. Windchill Dew Point Humidity Pressure Visibility Wind Dir Wind Speed Gust Speed Precip Events Conditions
12:30 AM 39.6 °F 28.5 °F 29.3 °F 67% 29.87 in - West 26.5 mph 34.5 mph N/A   Unknown
1:30 AM 39.4 °F 27.6 °F 27.9 °F 63% 29.90 in - WNW 29.9 mph 40.3 mph N/A   Unknown
2:30 AM 39 °F - 28 °F 53% 29.93 in - West 25.3 mph - -  
2:30 AM 39.4 °F 28.5 °F 27.9 °F 63% 29.93 in - West 25.3 mph 38.0 mph N/A   Unknown
3:30 AM 39.9 °F 28.8 °F 27.5 °F 61% 29.94 in - West 27.6 mph 39.1 mph N/A   Unknown
4:30 AM 40.3 °F 28.7 °F 29.3 °F 65% 29.97 in - WNW 31.1 mph 41.4 mph N/A   Unknown
5:30 AM 40 °F - 28 °F 51% 30.00 in - WNW 28.8 mph - -  
5:30 AM 40.1 °F 28.8 °F 28.2 °F 63% 30.00 in - WNW 28.8 mph 38.0 mph N/A   Unknown
6:30 AM 40.6 °F 29.8 °F 30.4 °F 67% 30.04 in - WNW 27.6 mph 36.8 mph N/A   Unknown
7:30 AM 40.6 °F 29.4 °F 28.9 °F 63% 30.07 in - West 29.9 mph 41.4 mph N/A   Unknown
8:30 AM 40 °F - 28 °F 50% 30.09 in - WNW 28.8 mph - -  
8:30 AM 40.5 °F 29.3 °F 27.9 °F 61% 30.09 in - WNW 28.8 mph 40.3 mph N/A   Unknown
9:30 AM 40.6 °F 30.2 °F 27.7 °F 60% 30.13 in - WNW 25.3 mph 33.4 mph N/A   Unknown
10:30 AM 40.8 °F 30.4 °F 27.7 °F 60% 30.15 in - West 25.3 mph 34.5 mph N/A   Unknown
11:30 AM 42.3 °F 32.6 °F 30.9 °F 64% 30.15 in - West 24.2 mph 32.2 mph N/A   Unknown
12:30 PM 41.4 °F 31.2 °F 27.5 °F 58% 30.14 in - West 25.3 mph 40.3 mph N/A   Unknown
1:30 PM 42.1 °F 32.8 °F 27.5 °F 56% 30.15 in - West 21.9 mph 29.9 mph N/A   Unknown
2:30 PM 43 °F - 28 °F 43% 30.16 in - West 27.6 mph - -  
2:30 PM 42.6 °F 32.4 °F 27.9 °F 56% 30.16 in - West 27.6 mph 35.7 mph N/A   Unknown
3:30 PM 42.1 °F 31.9 °F 27.7 °F 57% 30.18 in - West 26.5 mph 36.8 mph N/A   Unknown
4:30 PM 41.9 °F 30.5 °F 27.3 °F 56% 30.21 in - West 33.4 mph 40.3 mph N/A   Unknown
5:30 PM 41 °F - 28 °F 48% 30.24 in - West 26.5 mph - -  
5:30 PM 40.8 °F 30.2 °F 28.0 °F 60% 30.24 in - West 26.5 mph 38.0 mph N/A   Unknown
6:30 PM 40.1 °F 29.0 °F 28.0 °F 62% 30.27 in - WNW 27.6 mph 36.8 mph N/A   Unknown
7:30 PM 39.2 °F 28.3 °F 26.8 °F 61% 30.29 in - NW 25.3 mph 32.2 mph N/A   Unknown
8:30 PM 38 °F - 26 °F 49% 30.33 in - WNW 21.9 mph - -  
8:30 PM 38.3 °F 27.8 °F 25.5 °F 60% 30.33 in - WNW 21.9 mph 28.8 mph N/A   Unknown
9:30 PM 37.9 °F 27.9 °F 26.8 °F 64% 30.35 in - NW 19.6 mph 26.5 mph N/A   Unknown
10:30 PM 37.2 °F 27.0 °F 24.4 °F 60% 30.38 in - WNW 19.6 mph 27.6 mph N/A   Unknown
11:30 PM 37 °F - 25 °F 49% 30.40 in - WNW 21.9 mph - -  
11:30 PM 36.7 °F 25.7 °F 24.8 °F 62% 30.40 in - WNW 21.9 mph 28.8 mph N/A   Unknown